Weather History for KPNE - January, 2014

Change the Weather History Date:

Friday, January 17, 2014

  Actual Average Record
Temperature  
Mean Temperature 34 °F -  
Max Temperature 46 °F 34 °F 55 °F (2012)
Min Temperature 23 °F 21 °F 8 °F (2000)
Degree Days  
Heating Degree Days 30    
Moisture  
Dew Point 25 °F    
Average Humidity 68    
Maximum Humidity 85    
Minimum Humidity 48    
Precipitation  
Precipitation 0.00 in - - ()
Sea Level Pressure  
Sea Level Pressure 29.95 in    
Wind  
Wind Speed 2 mph (SE)    
Max Wind Speed 9 mph    
Max Gust Speed -    
Visibility 9 miles    
Events      
Averages and records for this station are not official NWS values.
T = Trace of Precipitation, MM = Missing Value Source: NWS Daily Summary

Daily Weather History Graph

Daily Weather History Graph

Search for Another Location

Airport or City:

Trip Planner

Search our weather history database for the weather conditions in past years. The results will help you decide how hot, cold, wet, or windy it might be!

Date:

Astronomy

Jan. 17, 2014 Rise Set
Actual Time 7:19 AM EST 5:01 PM EST
Civil Twilight 6:49 AM EST 5:31 PM EST
Nautical Twilight 6:16 AM EST 6:04 PM EST
Astronomical Twilight 5:44 AM EST 6:36 PM EST
Moon 6:45 PM EST (1/17) 7:45 AM EST (1/17)
Length of Visible Light 10h 41m
Length of Day
9h 41m
Full, 98% of the Moon is Illuminated
Jan 17
Full
Jan 24
Last Quarter
Jan 30
New
Feb 6
First Quarter
Feb 14
Full

Hourly Weather History & Observations

Time (EST) Temp. Windchill Dew Point Humidity Pressure Visibility Wind Dir Wind Speed Gust Speed Precip Events Conditions
12:54 AM 27.0 °F - 19.0 °F 72% 29.97 in 10.0 mi Calm Calm - N/A   Clear
1:54 AM 25.0 °F - 18.0 °F 75% 29.97 in 10.0 mi Calm Calm - N/A   Clear
2:54 AM 25.0 °F - 19.0 °F 78% 29.98 in 10.0 mi Calm Calm - N/A   Clear
3:54 AM 26.1 °F - 21.0 °F 81% 29.97 in 10.0 mi Calm Calm - N/A   Clear
4:54 AM 25.0 °F - 19.9 °F 81% 29.97 in 9.0 mi Calm Calm - N/A   Clear
5:54 AM 23.0 °F - 19.0 °F 85% 29.96 in 9.0 mi Calm Calm - N/A   Clear
6:54 AM 26.1 °F 20.5 °F 21.0 °F 81% 29.96 in 8.0 mi ESE 4.6 mph - N/A   Clear
8:54 AM 32.0 °F - 27.0 °F 82% 30.00 in 5.0 mi Calm Calm - N/A   Haze
9:54 AM 36.0 °F 29.0 °F 28.9 °F 76% 30.01 in 6.0 mi SSW 9.2 mph - N/A   Haze
10:54 AM 39.0 °F 33.4 °F 28.9 °F 67% 29.99 in 9.0 mi SW 8.1 mph - N/A   Mostly Cloudy
11:54 AM 42.1 °F 38.4 °F 28.0 °F 58% 29.97 in 10.0 mi SSW 5.8 mph - N/A   Clear
12:54 PM 44.1 °F 40.1 °F 28.0 °F 53% 29.94 in 10.0 mi SW 6.9 mph - N/A   Clear
1:54 PM 44.1 °F - 28.0 °F 53% 29.94 in 10.0 mi Calm Calm - N/A   Clear
2:54 PM 46.9 °F - 28.0 °F 48% 29.94 in 10.0 mi Calm Calm - N/A   Clear
3:54 PM 45.0 °F - 26.1 °F 48% 29.93 in 10.0 mi Calm Calm - N/A   Clear
4:54 PM 43.0 °F - 25.0 °F 49% 29.93 in 10.0 mi Calm Calm - N/A   Clear
5:54 PM 39.9 °F - 26.1 °F 58% 29.95 in 10.0 mi Calm Calm - N/A   Clear
6:54 PM 37.0 °F 34.5 °F 26.1 °F 65% 29.94 in 10.0 mi NE 3.5 mph - N/A   Clear
7:54 PM 37.0 °F - 27.0 °F 67% 29.95 in 10.0 mi Calm Calm - N/A   Partly Cloudy
8:54 PM 37.0 °F - 27.0 °F 67% 29.95 in 10.0 mi Calm Calm - N/A   Clear
9:54 PM 36.0 °F 32.1 °F 27.0 °F 70% 29.94 in 10.0 mi NE 4.6 mph - N/A   Clear
10:54 PM 36.0 °F 33.3 °F 28.0 °F 73% 29.91 in 10.0 mi ENE 3.5 mph - N/A   Scattered Clouds
11:54 PM 36.0 °F 32.1 °F 28.0 °F 73% 29.87 in 10.0 mi NE 4.6 mph - N/A   Clear